VE3KSR Weather Reports


Display with metric or nautical units.
time (UTC)temp
F
wind
direction
speed
MPH
gust
MPH
rain 1hr
in
rain 24hr
in
rain mn
in
humidity
%
barometer
mb
20160530200718 66 0 0.0 0.0 1.42 0.00 0.00 56 1014.3
20160530200218 65 0 0.0 0.0 1.42 0.00 0.00 57 1014.4
20160530195718 65 0 0.0 0.0 1.42 0.00 0.00 55 1014.5
20160530195218 66 0 0.0 0.0 1.42 0.00 0.00 56 1014.3
20160530194719 65 0 0.0 0.0 1.42 0.00 0.00 55 1014.5
20160530194218 65 0 0.0 0.0 1.42 0.00 0.00 59 1014.5
20160530193723 66 0 0.0 0.0 1.42 0.00 0.00 57 1014.6
20160530192221 66 0 0.0 0.0 1.42 0.00 0.00 59 1014.6
20160530191719 66 0 0.0 0.0 1.42 0.00 0.00 59 1014.5
20160530191218 66 0 0.0 0.0 1.42 0.00 0.00 59 1014.5
20160530190718 66 0 0.0 0.0 1.42 0.00 0.00 60 1014.6
20160530190221 66 0 0.0 0.0 1.42 0.00 0.00 61 1014.6
20160530185718 66 0 0.0 0.0 1.42 0.00 0.00 60 1014.6
20160530185218 66 0 0.0 0.0 1.42 0.00 0.00 61 1014.5
20160530184718 65 0 0.0 0.0 1.42 0.00 0.00 63 1014.5
20160530184222 66 0 0.0 0.0 1.42 0.00 0.00 62 1014.4
20160530183719 66 0 0.0 0.0 1.42 0.00 0.00 62 1014.5
20160530183218 66 0 0.0 0.0 1.42 0.00 0.00 66 1014.6
20160530182719 65 0 0.0 0.0 1.42 0.00 0.00 64 1014.4
20160530182219 65 0 0.0 0.0 1.42 0.00 0.00 64 1014.6
20160530181719 65 0 0.0 0.0 1.42 0.00 0.00 62 1014.5
20160530181218 65 0 0.0 0.0 1.42 0.00 0.00 62 1014.4
20160530180719 65 0 0.0 0.0 1.42 0.00 0.00 63 1014.6
20160530180218 65 0 0.0 0.0 1.42 0.00 0.00 64 1014.5
20160530175718 65 0 0.0 0.0 1.42 0.00 0.00 65 1014.6
20160530175218 66 0 0.0 0.0 1.42 0.00 0.00 63 1014.5
20160530174720 66 0 0.0 0.0 1.42 0.00 0.00 64 1014.5
20160530174218 66 0 0.0 0.0 1.42 0.00 0.00 67 1014.6
20160530173719 65 0 0.0 0.0 1.42 0.00 0.00 68 1014.5
20160530173218 65 0 0.0 0.0 1.42 0.00 0.00 69 1014.5
20160530172721 65 0 0.0 0.0 1.42 0.00 0.00 67 1014.6
20160530172218 65 0 0.0 0.0 1.42 0.00 0.00 68 1014.5
20160530171720 65 0 0.0 0.0 1.42 0.00 0.00 71 1014.7
20160530171218 64 0 0.0 0.0 1.42 0.00 0.00 70 1014.6
20160530170718 64 0 0.0 0.0 1.42 0.00 0.00 72 1014.8
20160530170219 64 0 0.0 0.0 1.42 0.00 0.00 71 1014.7
20160530165718 64 0 0.0 0.0 1.42 0.00 0.00 72 1014.8
20160530165218 64 0 0.0 0.0 1.42 0.00 0.00 73 1015.0
20160530164718 64 0 0.0 0.0 1.42 0.00 0.00 73 1015.1
20160530164218 63 0 0.0 0.0 1.42 0.00 0.00 73 1015.2
20160530163722 64 0 0.0 0.0 1.42 0.00 0.00 76 1015.1
20160530163218 64 0 0.0 0.0 1.42 0.00 0.00 77 1015.1
20160530162721 64 0 0.0 0.0 1.42 0.00 0.00 76 1015.0
20160530162220 63 0 0.0 0.0 1.42 0.00 0.00 75 1015.0
20160530161718 63 0 0.0 0.0 1.42 0.00 0.00 77 1015.1
20160530161218 63 0 0.0 0.0 1.42 0.00 0.00 79 1015.2
20160530160718 63 0 0.0 0.0 1.42 0.00 0.00 77 1015.1
20160530160218 63 0 0.0 0.0 1.42 0.00 0.00 77 1015.0
20160530155718 63 0 0.0 0.0 1.42 0.00 0.00 80 1015.1
20160530155219 63 0 0.0 0.0 1.42 0.00 0.00 80 1014.8
20160530154722 63 0 0.0 0.0 1.42 0.00 0.00 80 1014.8
20160530154218 63 0 0.0 0.0 1.42 0.00 0.00 81 1014.8
20160530153720 63 0 0.0 0.0 1.42 0.00 0.00 72 1014.7
20160530153220 63 0 0.0 0.0 1.42 0.00 0.00 78 1014.7
20160530152719 63 0 0.0 0.0 1.42 0.00 0.00 81 1014.8
20160530152220 63 0 0.0 0.0 1.42 0.00 0.00 81 1014.7
20160530151719 63 0 0.0 0.0 1.42 0.00 0.00 81 1014.8
20160530151218 62 0 0.0 0.0 1.42 0.00 0.00 83 1014.7
20160530150719 62 0 0.0 0.0 1.42 0.00 0.00 84 1015.0
20160530150218 62 0 0.0 0.0 1.42 0.00 0.00 84 1014.8
20160530145719 62 0 0.0 0.0 1.42 0.00 0.00 84 1014.8
20160530145219 62 0 0.0 0.0 1.42 0.00 0.00 84 1015.0
20160530144720 62 0 0.0 0.0 1.42 0.00 0.00 85 1015.0
20160530144219 62 0 0.0 0.0 1.42 0.00 0.00 86 1015.0
20160530143721 62 0 0.0 0.0 1.42 0.00 0.00 85 1015.0
20160530143219 62 0 0.0 0.0 1.42 0.00 0.00 85 1015.0
20160530142721 62 0 0.0 0.0 1.42 0.00 0.00 85 1015.0
20160530142219 62 0 0.0 0.0 1.42 0.00 0.00 85 1015.0
20160530141719 61 0 0.0 0.0 1.42 0.00 0.00 85 1015.1
20160530141219 62 0 0.0 0.0 1.42 0.00 0.00 86 1015.1
20160530140719 62 0 0.0 0.0 1.42 0.00 0.00 87 1015.0
20160530140219 61 0 0.0 0.0 1.42 0.00 0.00 87 1015.1
20160530135719 61 0 0.0 0.0 1.42 0.00 0.00 87 1015.0
20160530135219 61 0 0.0 0.0 1.42 0.00 0.00 88 1014.8
20160530134719 61 0 0.0 0.0 1.42 0.00 0.00 89 1015.0
20160530134541 61 0 0.0 0.0 1.42 0.00 0.00 89 1014.8
20160530134219 61 0 0.0 0.0 1.42 0.00 0.00 89 1014.8
20160530133719 60 0 0.0 0.0 1.42 0.00 0.00 89 1014.8
20160530133219 61 0 0.0 0.0 1.42 0.00 0.00 89 1014.8
20160530132719 60 0 0.0 0.0 1.42 0.00 0.00 90 1014.8
20160530132630 60 0 0.0 0.0 1.42 0.00 0.00 89 1014.8
20160530132220 60 0 0.0 0.0 1.42 0.00 0.00 89 1014.8
20160530131719 60 0 0.0 0.0 1.42 0.00 0.00 90 1015.0
20160530131607 60 0 0.0 0.0 1.42 0.00 0.00 90 1014.8
20160530131219 60 0 0.0 0.0 1.42 0.00 0.00 90 1014.8
20160530130719 60 0 0.0 0.0 1.42 0.00 0.00 90 1014.8
20160530130624 60 0 0.0 0.0 1.42 0.00 0.00 90 1015.1
20160530130219 60 0 0.0 0.0 1.42 0.00 0.00 90 1015.1
20160530125720 60 0 0.0 0.0 1.42 0.00 0.00 91 1015.0
20160530125607 59 0 0.0 0.0 1.42 0.00 0.00 91 1015.0
20160530125220 59 0 0.0 0.0 1.42 0.00 0.00 91 1015.0
20160530124722 59 0 0.0 0.0 1.42 0.00 0.00 91 1014.8
20160530124654 59 0 0.0 0.0 1.42 0.00 0.00 91 1015.1
20160530124219 59 0 0.0 0.0 1.42 0.00 0.00 91 1015.1
20160530123718 59 0 0.0 0.0 1.42 0.00 0.00 91 1014.8
20160530123222 59 0 0.0 0.0 1.42 0.00 0.00 91 1015.0
20160530123100 59 0 0.0 0.0 1.42 0.00 0.00 92 1015.0
20160530122719 59 0 0.0 0.0 1.42 0.00 0.00 92 1015.0
20160530122219 59 0 0.0 0.0 1.42 0.00 0.00 92 1014.7
20160530121719 58 0 0.0 0.0 1.42 0.00 0.00 92 1015.0
20160530121222 58 0 0.0 0.0 1.42 0.00 0.00 92 1015.2
20160530120719 58 0 0.0 0.0 1.42 0.00 0.00 92 1015.1
20160530120220 58 0 0.0 0.0 1.42 0.00 0.00 93 1015.3
20160530115719 57 0 0.0 0.0 1.42 0.00 0.00 93 1015.1
20160530115600 57 0 0.0 0.0 1.42 0.00 0.00 94 1015.0
20160530115222 57 0 0.0 0.0 1.42 0.00 0.00 94 1015.0
20160530115109 57 0 0.0 0.0 1.42 0.00 0.00 94 1015.0
20160530114719 57 0 0.0 0.0 1.42 0.00 0.00 94 1015.0
20160530114220 57 0 0.0 0.0 1.42 0.00 0.00 94 1015.0
20160530113722 56 0 0.0 0.0 1.42 0.00 0.00 95 1015.1
20160530113525 55 0 0.0 0.0 1.42 0.00 0.00 95 1015.0
20160530113221 55 0 0.0 0.0 1.42 0.00 0.00 95 1014.6
20160530112724 55 0 0.0 0.0 1.42 0.00 0.00 95 1014.6
20160530112601 54 0 0.0 0.0 1.42 0.00 0.00 95 1014.7
20160530112221 54 0 0.0 0.0 1.42 0.00 0.00 95 1014.7
20160530111719 53 0 0.0 0.0 1.42 0.00 0.00 95 1014.6
20160530111219 56 0 0.0 0.0 1.42 0.00 0.00 95 1014.8
20160530110720 56 0 0.0 0.0 1.42 0.00 0.00 95 1015.0
20160530110616 56 0 0.0 0.0 1.42 0.00 0.00 95 1014.8
20160530110220 56 0 0.0 0.0 1.42 0.00 0.00 95 1014.8
20160530110131 51 0 0.0 0.0 1.42 0.00 0.00 95 1014.6
20160530105719 51 0 0.0 0.0 1.42 0.00 0.00 95 1014.6
20160530105645 51 0 0.0 0.0 1.42 0.00 0.00 95 1014.7
20160530105220 51 0 0.0 0.0 1.42 0.00 0.00 95 1014.7
20160530104720 51 0 0.0 0.0 1.42 0.00 0.00 95 1014.7
20160530104618 51 0 0.0 0.0 1.42 0.00 0.00 95 1014.7
20160530104219 51 0 0.0 0.0 1.42 0.00 0.00 95 1014.7
20160530103721 51 0 0.0 0.0 1.42 0.00 0.00 95 1014.6
20160530103629 50 0 0.0 0.0 1.42 0.00 0.00 95 1014.7
20160530103221 50 0 0.0 0.0 1.42 0.00 0.00 95 1014.7
20160530103216 50 0 0.0 0.0 1.42 0.00 0.00 95 1014.8
20160530102719 50 0 0.0 0.0 1.42 0.00 0.00 95 1014.8
20160530102605 50 0 0.0 0.0 1.42 0.00 0.00 95 1014.7
20160530102220 50 0 0.0 0.0 1.42 0.00 0.00 95 1014.7
20160530101719 51 0 0.0 0.0 1.42 0.00 0.00 95 1014.7
20160530101219 50 0 0.0 0.0 1.42 0.00 0.00 95 1014.5
20160530100719 51 0 0.0 0.0 1.42 0.00 0.00 95 1014.1
20160530100242 51 0 0.0 0.0 1.42 0.00 0.00 95 1014.3
20160530100219 50 0 0.0 0.0 1.42 0.00 0.00 95 1014.0
20160530095719 51 0 0.0 0.0 1.42 0.00 0.00 95 1014.3
20160530095224 51 0 0.0 0.0 1.42 0.00 0.00 95 1014.0
20160530094742 52 0 0.0 0.0 1.42 0.00 0.00 94 1013.9
20160530094720 51 0 0.0 0.0 1.42 0.00 0.00 94 1014.0
20160530094221 52 0 0.0 0.0 1.42 0.00 0.00 94 1013.9
20160530094027 52 0 0.0 0.0 1.42 0.00 0.00 94 1014.0
20160530093720 52 0 0.0 0.0 1.42 0.00 0.00 94 1014.0
20160530093646 51 0 0.0 0.0 1.42 0.00 0.00 94 1013.9
20160530093324 51 0 0.0 0.0 1.42 0.00 0.00 95 1014.1
20160530093220 51 0 0.0 0.0 1.42 0.00 0.00 94 1013.9
20160530092721 51 0 0.0 0.0 1.42 0.00 0.00 95 1014.1
20160530092606 51 0 0.0 0.0 1.42 0.00 0.00 95 1013.7
20160530092227 51 0 0.0 0.0 1.42 0.00 0.00 95 1013.7
20160530092224 51 0 0.0 0.0 1.42 0.00 0.00 95 1013.7
20160530092050 51 0 0.0 0.0 1.42 0.00 0.00 95 1013.5
20160530091907 51 0 0.0 0.0 1.42 0.00 0.00 95 1013.6
20160530091719 51 0 0.0 0.0 1.42 0.00 0.00 95 1013.5
20160530091224 51 0 0.0 0.0 1.42 0.00 0.00 95 1013.8
20160530091220 51 0 0.0 0.0 1.42 0.00 0.00 95 1013.6
20160530090720 51 0 0.0 0.0 1.42 0.00 0.00 95 1013.8
20160530090714 52 0 0.0 0.0 1.42 0.00 0.00 95 1013.9
20160530090220 52 0 0.0 0.0 1.42 0.00 0.00 95 1013.9
20160530090022 52 0 0.0 0.0 1.42 0.00 0.00 95 1013.8
20160530085721 52 0 0.0 0.0 1.42 0.00 0.00 95 1013.8
20160530085644 51 0 0.0 0.0 1.42 0.00 0.00 95 1013.6
20160530085223 51 0 0.0 0.0 1.42 0.00 0.00 95 1013.6
20160530085219 51 0 0.0 0.0 1.42 0.00 0.00 95 1013.6
20160530085159 52 0 0.0 0.0 1.42 0.00 0.00 95 1013.7
20160530084742 52 0 0.0 0.0 1.42 0.00 0.00 94 1013.7
20160530084720 52 0 0.0 0.0 1.42 0.00 0.00 95 1013.7
20160530084219 52 0 0.0 0.0 1.42 0.00 0.00 94 1013.7
20160530083754 53 0 0.0 0.0 1.42 0.00 0.00 95 1013.6
20160530083720 51 0 0.0 0.0 1.42 0.00 0.00 94 1013.6
20160530083221 55 0 0.0 0.0 1.42 0.00 0.00 95 1013.4
20160530083219 53 0 0.0 0.0 1.42 0.00 0.00 95 1013.6
20160530082722 55 0 0.0 0.0 1.42 0.00 0.00 95 1013.4
20160530082621 55 0 0.0 0.0 1.42 0.00 0.00 95 1013.4
20160530082219 55 0 0.0 0.0 1.42 0.00 0.00 95 1013.4
20160530081956 55 0 0.0 0.0 1.42 0.00 0.00 95 1013.4
20160530081722 54 0 0.0 0.0 1.42 0.00 0.00 95 1013.4
20160530081720 55 0 0.0 0.0 1.42 0.00 0.00 95 1013.4
20160530081219 54 0 0.0 0.0 1.42 0.00 0.00 95 1013.4
20160530080719 54 0 0.0 0.0 1.42 0.00 0.00 95 1013.3
20160530080219 54 0 0.0 0.0 1.42 0.00 0.00 95 1013.3
20160530080155 54 0 0.0 0.0 1.42 0.00 0.00 95 1013.5
20160530075719 54 0 0.0 0.0 1.42 0.00 0.00 95 1013.5
20160530075620 54 0 0.0 0.0 1.42 0.00 0.00 95 1013.2
20160530075221 54 0 0.0 0.0 1.42 0.00 0.00 95 1013.2
20160530075148 54 0 0.0 0.0 1.42 0.00 0.00 95 1013.4
20160530074721 54 0 0.0 0.0 1.42 0.00 0.00 95 1013.5
20160530074219 54 0 0.0 0.0 1.42 0.00 0.00 95 1013.5
20160530073720 54 0 0.0 0.0 1.42 0.00 0.00 95 1013.3
20160530073242 54 0 0.0 0.0 1.42 0.00 0.00 94 1013.4
20160530073220 54 0 0.0 0.0 1.42 0.00 0.00 95 1013.6
20160530072720 54 0 0.0 0.0 1.42 0.00 0.00 94 1013.4
20160530072619 55 0 0.0 0.0 1.42 0.00 0.00 94 1013.5
20160530072220 55 0 0.0 0.0 1.42 0.00 0.00 94 1013.5
20160530071720 55 0 0.0 0.0 1.42 0.00 0.00 94 1013.6
20160530071219 55 0 0.0 0.0 1.42 0.00 0.00 93 1013.3
20160530070722 55 0 0.0 0.0 1.42 0.00 0.00 93 1013.5
20160530070712 55 0 0.0 0.0 1.42 0.00 0.00 93 1013.7
20160530070219 55 0 0.0 0.0 1.42 0.00 0.00 93 1013.7
20160530065757 55 0 0.0 0.0 1.42 0.00 0.00 93 1013.6
20160530065719 55 0 0.0 0.0 1.42 0.00 0.00 93 1013.7
20160530065222 55 0 0.0 0.0 1.42 0.00 0.00 93 1013.6
20160530064720 55 0 0.0 0.0 1.42 0.00 0.00 93 1013.4
20160530064601 55 0 0.0 0.0 1.42 0.00 0.00 93 1013.4
20160530064219 55 0 0.0 0.0 1.42 0.00 0.00 93 1013.4
20160530064026 56 0 0.0 0.0 1.42 0.00 0.00 93 1013.4
20160530063719 56 0 0.0 0.0 1.42 0.00 0.00 93 1013.4
20160530063548 56 0 0.0 0.0 1.42 0.00 0.00 93 1013.5
20160530063222 56 0 0.0 0.0 1.42 0.00 0.00 93 1013.5
20160530062720 56 0 0.0 0.0 1.42 0.00 0.00 93 1013.5
20160530062604 56 0 0.0 0.0 1.42 0.00 0.00 93 1013.3
20160530062220 56 0 0.0 0.0 1.42 0.00 0.00 93 1013.3
20160530061957 56 0 0.0 0.0 1.42 0.00 0.00 93 1013.3
20160530061721 56 0 0.0 0.0 1.42 0.00 0.00 93 1013.3
20160530061323 56 0 0.0 0.0 1.42 0.00 0.00 93 1013.4
20160530061220 56 0 0.0 0.0 1.42 0.00 0.00 94 1013.3
20160530060721 56 0 0.0 0.0 1.42 0.00 0.00 93 1013.4
20160530060532 56 0 0.0 0.0 1.42 0.00 0.00 93 1013.4
20160530060222 56 0 0.0 0.0 1.42 0.00 0.00 93 1013.4
20160530055720 56 0 0.0 0.0 1.42 0.00 0.00 93 1013.3
20160530055559 55 0 0.0 0.0 1.42 0.00 0.00 93 1013.3
20160530055220 55 0 0.0 0.0 1.42 0.00 0.00 93 1013.3
20160530054947 55 0 0.0 0.0 1.42 0.00 0.00 93 1013.5
20160530054721 55 0 0.0 0.0 1.42 0.00 0.00 93 1013.5
20160530054649 54 0 0.0 0.0 1.42 0.00 0.00 82 1013.3
20160530054220 54 0 0.0 0.0 1.42 0.00 0.00 82 1013.3
20160530054022 54 0 0.0 0.0 1.42 0.00 0.00 93 1013.6
20160530053720 54 0 0.0 0.0 1.42 0.00 0.00 93 1013.6
20160530053547 55 0 0.0 0.0 1.42 0.00 0.00 93 1013.4
20160530053220 55 0 0.0 0.0 1.42 0.00 0.00 93 1013.4
20160530053106 54 0 0.0 0.0 1.42 0.00 0.00 93 1013.5
20160530052721 54 0 0.0 0.0 1.42 0.00 0.00 93 1013.5
20160530052528 54 0 0.0 0.0 1.42 0.00 0.00 92 1013.6
20160530052220 54 0 0.0 0.0 1.42 0.00 0.00 92 1013.6
20160530052001 55 0 0.0 0.0 1.42 0.00 0.00 92 1013.6
20160530051721 55 0 0.0 0.0 1.42 0.00 0.00 92 1013.6
20160530051220 55 0 0.0 0.0 1.42 0.00 0.00 92 1013.4
20160530050720 55 0 0.0 0.0 1.42 0.00 0.00 92 1013.4
20160530050220 55 0 0.0 0.0 1.42 0.00 0.00 92 1013.6
20160530045721 55 0 0.0 0.0 1.42 0.00 0.00 91 1013.2
20160530045220 55 0 0.0 0.0 1.42 0.00 0.00 91 1013.5
20160530044720 55 0 0.0 0.0 1.42 0.00 0.00 91 1013.3
20160530044550 56 0 0.0 0.0 1.42 0.00 0.00 90 1013.3
20160530044220 56 0 0.0 0.0 1.42 0.00 0.00 90 1013.3
20160530043722 56 0 0.0 0.0 1.42 0.00 0.00 90 1013.3
20160530043220 56 0 0.0 0.0 1.42 0.00 0.00 89 1013.4
20160530042720 56 0 0.0 0.0 1.42 0.00 0.00 88 1013.3
20160530042530 56 0 0.0 0.0 1.42 0.00 0.00 87 1013.3
20160530042221 56 0 0.0 0.0 1.42 0.00 0.00 87 1013.3
20160530042016 57 0 0.0 0.0 1.42 0.00 0.00 87 1013.3
20160530041720 57 0 0.0 0.0 1.42 0.00 0.00 87 1013.3
20160530041654 56 0 0.0 0.0 1.42 0.00 0.00 87 1013.2
20160530041220 56 0 0.0 0.0 1.42 0.00 0.00 87 1013.2
20160530041053 56 0 0.0 0.0 1.42 0.00 0.00 88 1013.3
20160530040720 56 0 0.0 0.0 1.42 0.00 0.00 88 1013.3
20160530040504 56 0 0.0 0.0 1.42 0.00 0.00 88 1013.2
20160530040221 56 0 0.0 0.0 1.42 0.00 0.00 88 1013.2
20160530040017 56 0 0.0 0.0 1.42 0.00 0.00 87 1013.2
20160530035720 56 0 0.0 0.0 1.42 0.00 0.00 87 1013.2
20160530035521 56 0 0.0 0.0 1.42 0.00 0.00 87 1013.1
20160530035220 56 0 0.0 0.0 1.42 0.00 0.00 87 1013.1
20160530035101 56 0 0.0 0.0 1.42 0.00 0.00 88 1013.1
20160530034720 56 0 0.0 0.0 1.42 0.00 0.00 88 1013.1
20160530034536 56 0 0.0 0.0 1.42 0.00 0.00 88 1013.0
20160530034220 56 0 0.0 0.0 1.42 0.00 0.00 88 1013.0
20160530033720 56 0 0.0 0.0 1.42 0.00 0.00 88 1012.9
20160530033517 55 0 0.0 0.0 1.42 0.00 0.00 89 1013.0
20160530033220 55 0 0.0 0.0 1.42 0.00 0.00 89 1013.0
20160530033100 55 0 0.0 0.0 1.42 0.00 0.00 90 1013.1
20160530032721 55 0 0.0 0.0 1.42 0.00 0.00 90 1013.1
20160530032516 55 0 0.0 0.0 1.42 0.00 0.00 91 1013.0
20160530032220 55 0 0.0 0.0 1.42 0.00 0.00 91 1013.0
20160530031720 55 0 0.0 0.0 1.42 0.00 0.00 91 1013.0
20160530031549 55 0 0.0 0.0 1.42 0.00 0.00 91 1013.0
20160530031226 55 0 0.0 0.0 1.42 0.00 0.00 91 1013.0
20160530030720 54 0 0.0 0.0 1.42 0.00 0.00 92 1013.0
20160530030616 54 0 0.0 0.0 1.42 0.00 0.00 91 1013.1
20160530030220 54 0 0.0 0.0 1.42 0.00 0.00 91 1013.1
20160530030100 54 0 0.0 0.0 1.42 0.00 0.00 92 1012.9
20160530025720 54 0 0.0 0.0 1.42 0.00 0.00 92 1012.9
20160530025717 54 0 0.0 0.0 1.42 0.00 0.00 92 1012.9
20160530025220 54 0 0.0 0.0 1.42 0.00 0.00 92 1012.9
20160530024720 54 0 0.0 0.0 1.42 0.00 0.00 92 1013.0
20160530024220 54 0 0.0 0.0 1.42 0.00 0.00 91 1013.2
20160530024140 53 0 0.0 0.0 1.42 0.00 0.00 91 1013.3
20160530023722 53 0 0.0 0.0 1.42 0.00 0.00 91 1013.3
20160530023220 54 0 0.0 0.0 1.42 0.00 0.00 91 1013.2
20160530022720 54 0 0.0 0.0 1.42 0.00 0.00 91 1012.5
20160530022221 55 0 0.0 0.0 1.42 0.00 0.00 86 1012.5
20160530021720 57 0 0.0 0.0 1.42 0.00 0.00 86 1013.3
20160530021452 57 0 0.0 0.0 1.42 0.00 0.00 84 1012.7
20160530021220 57 0 0.0 0.0 1.42 0.00 0.00 83 1013.1
20160530020720 57 0 0.0 0.0 1.42 0.00 0.00 84 1012.7
20160530020612 57 0 0.0 0.0 1.42 0.00 0.00 88 1012.9
20160530020220 57 0 0.0 0.0 1.42 0.00 0.00 88 1012.9
20160530015721 56 0 0.0 0.0 1.42 0.00 0.00 88 1012.6
20160530015622 56 0 0.0 0.0 1.42 0.00 0.00 88 1012.5
20160530015220 56 0 0.0 0.0 1.42 0.00 0.00 88 1012.5
20160530014722 57 0 0.0 0.0 1.42 0.00 0.00 85 1012.3
20160530014221 57 0 0.0 0.0 1.42 0.00 0.00 83 1012.5
20160530013921 59 0 0.0 0.0 1.42 0.00 0.00 78 1012.6
20160530013722 58 0 0.0 0.0 1.42 0.00 0.00 80 1012.4
20160530013449 59 0 0.0 0.0 1.42 0.00 0.00 74 1012.5
20160530013220 59 0 0.0 0.0 1.42 0.00 0.00 78 1012.6
20160530012720 59 0 0.0 0.0 1.42 0.00 0.00 74 1012.5
20160530012221 59 0 0.0 0.0 1.42 0.00 0.00 73 1012.4
20160530011720 59 0 0.0 0.0 1.42 0.00 0.00 72 1012.2
20160530011221 60 0 0.0 0.0 1.42 0.00 0.00 72 1012.8
20160530010720 60 0 0.0 0.0 1.42 0.00 0.00 70 1012.9
20160530010220 60 0 0.0 0.0 1.42 0.00 0.00 69 1012.9
20160530005720 58 0 0.0 0.0 1.42 0.00 0.00 70 1012.9
20160530005615 58 0 0.0 0.0 1.42 0.00 0.00 72 1013.2
20160530005221 58 0 0.0 0.0 1.42 0.00 0.00 72 1013.2
20160530004745 57 0 0.0 0.0 1.42 0.00 0.00 75 1013.3
20160530004721 58 0 0.0 0.0 1.42 0.00 0.00 73 1013.3
20160530004222 57 0 0.0 0.0 1.42 0.00 0.00 75 1013.3
20160530003720 57 0 0.0 0.0 1.42 0.00 0.00 76 1013.2
20160530003223 57 0 0.0 0.0 1.42 0.00 0.00 72 1013.0
20160530002720 56 0 0.0 0.0 1.42 0.00 0.00 73 1012.8
20160530002221 56 359 4.0 22.0 1.42 0.00 0.00 73 1013.0
20160530001721 56 0 0.0 0.0 1.42 0.00 0.00 73 1013.1
20160530001549 56 0 0.0 0.0 1.42 0.00 0.00 74 1013.2
20160530001220 56 0 0.0 0.0 1.42 0.00 0.00 74 1013.2
20160530000721 58 0 0.0 0.0 1.42 0.00 0.00 71 1013.5
20160530000224 60 0 0.0 0.0 1.42 0.00 0.00 68 1013.4
20160529235720 63 0 0.0 0.0 1.42 0.00 0.00 64 1013.5
20160529235649 65 269 6.0 47.0 1.42 0.00 0.00 61 1013.6
20160529235236 66 273 9.0 24.0 1.42 0.00 0.00 77 1013.2
20160529235220 65 269 6.0 47.0 1.42 0.00 0.00 61 1013.6
20160529234720 66 273 9.0 24.0 1.42 0.00 0.00 77 1013.2
20160529234222 66 257 2.0 16.0 1.42 0.00 0.00 77 1013.0
20160529233840 66 263 4.0 20.0 1.42 0.00 0.00 76 1012.7
20160529233720 66 239 4.0 20.0 1.42 0.00 0.00 77 1012.9
20160529233222 66 263 4.0 20.0 1.42 0.00 0.00 76 1012.7
20160529232720 67 263 1.0 14.0 1.42 0.00 0.00 76 1012.7
20160529232700 67 0 0.0 0.0 1.42 0.00 0.00 75 1012.4
20160529232221 67 0 0.0 0.0 1.42 0.00 0.00 75 1012.4
20160529231754 67 252 4.0 21.0 1.42 0.00 0.00 74 1012.5
20160529231720 67 269 9.0 23.0 1.42 0.00 0.00 75 1012.5
20160529231220 67 252 4.0 21.0 1.42 0.00 0.00 74 1012.5
20160529230720 67 226 4.0 24.0 1.42 0.00 0.00 74 1012.5
20160529230221 67 222 2.0 24.0 1.42 0.00 0.00 74 1012.3
20160529225720 67 269 1.0 8.0 1.42 0.00 0.00 73 1012.4
20160529225543 67 0 0.0 0.0 1.42 0.00 0.00 73 1012.3
20160529225220 67 0 0.0 0.0 1.42 0.00 0.00 73 1012.3
20160529224721 67 0 0.0 0.0 1.42 0.00 0.00 73 1012.3
20160529224220 67 0 0.0 0.0 1.42 0.00 0.00 73 1012.5
20160529223722 67 269 3.0 18.0 1.42 0.00 0.00 74 1012.6
20160529223224 67 0 0.0 0.0 1.42 0.00 0.00 75 1012.6
20160529222720 68 0 0.0 0.0 1.42 0.00 0.00 75 1012.7
20160529222220 67 269 3.0 17.0 1.42 0.00 0.00 75 1012.7
20160529221722 67 218 6.0 22.0 1.42 0.00 0.00 73 1012.7
20160529221220 68 232 2.0 16.0 1.42 0.00 0.00 74 1012.7
20160529220720 68 239 5.0 20.0 1.42 0.00 0.00 73 1012.9
20160529220244 68 194 4.0 16.0 1.42 0.00 0.00 73 1012.8
20160529220221 68 229 8.0 23.0 1.42 0.00 0.00 73 1012.9
20160529215721 68 194 4.0 16.0 1.42 0.00 0.00 73 1012.8
20160529215222 68 225 5.0 22.0 1.42 0.00 0.00 73 1012.7
20160529214721 67 208 5.0 20.0 1.42 0.00 0.00 75 1012.8
20160529214221 67 221 2.0 13.0 1.42 0.00 0.00 76 1012.9
20160529213721 67 233 4.0 19.0 1.42 0.00 0.00 76 1012.9
20160529213221 67 217 4.0 21.0 1.42 0.00 0.00 75 1012.9
20160529212721 67 255 5.0 18.0 1.42 0.00 0.00 77 1012.9
20160529212221 67 228 3.0 18.0 1.42 0.00 0.00 78 1013.1
20160529211722 67 222 9.0 21.0 1.42 0.00 0.00 78 1013.1
20160529211221 67 231 6.0 21.0 1.42 0.00 0.00 78 1013.3
20160529210725 67 228 8.0 22.0 1.42 0.00 0.00 77 1013.1
20160529210721 67 226 4.0 20.0 1.42 0.00 0.00 78 1013.3
20160529210221 67 228 8.0 22.0 1.42 0.00 0.00 77 1013.1
20160529205721 67 37 11.0 20.0 1.42 0.00 0.00 77 1013.4
20160529205642 67 10 8.0 22.0 1.42 0.00 0.00 77 1013.3
20160529205222 67 10 8.0 22.0 1.42 0.00 0.00 77 1013.3
20160529204721 67 222 14.0 20.0 1.42 0.00 0.00 77 1013.6
20160529204545 67 224 18.0 23.0 1.42 0.00 0.00 76 1013.7
20160529204222 67 224 18.0 23.0 1.42 0.00 0.00 76 1013.7
20160529203721 67 222 15.0 22.0 1.42 0.00 0.00 76 1013.7
20160529203221 68 218 18.0 24.0 1.42 0.00 0.00 75 1013.5
20160529202721 67 211 16.0 22.0 1.42 0.00 0.00 75 1013.6
20160529202607 68 226 15.0 20.0 1.42 0.00 0.00 75 1013.7
20160529202221 68 226 15.0 20.0 1.42 0.00 0.00 75 1013.7
20160529201721 68 236 17.0 21.0 1.42 0.00 0.00 74 1013.8
20160529201221 68 235 15.0 21.0 1.42 0.00 0.00 74 1013.7